#timestamp,LO_Frequency,Hit,StdDev 
1664006415.9,286047004.3,N
1664006435.7,286047001.8,N
1664006455.6,286047004.1,N
1664006475.4,286047006.0,N
1664006495.2,286047005.8,N
1664006515.1,286047005.1,N
1664006516.0,286047005.1,N
1664006535.8,286047005.0,N
1664006555.7,286047004.8,N
1664006575.5,286047005.0,N
1664006595.3,286047004.9,N
1664006615.2,286047005.6,N
1664006635.0,286047001.7,N
1664006635.9,286047001.7,N
1664006655.7,286047001.7,N
1664006675.6,286047002.2,N
1664006695.4,286047002.5,N
1664006715.3,286047000.9,N
1664006735.1,286046998.4,N
1664006736.0,286046998.4,N
1664006755.8,286047000.3,N
1664006775.7,286047000.0,N
1664006795.5,286047000.2,N
1664006815.3,286047001.5,N
1664006835.2,286047003.8,N
1664006855.0,286047003.2,N
1664006855.9,286047003.2,N
1664006875.8,286047005.1,N
1664006895.6,286047004.9,N
1664006915.4,286047005.8,N
1664006935.3,286047005.9,N
1664006955.1,286047004.8,N
1664006975.8,286047001.3,N
1664006995.7,286047003.9,N
1664007015.5,286047003.2,N
1664007035.4,286047005.8,N
1664007055.2,286047005.5,N
1664007075.0,286047005.6,N
1664007075.9,286047005.6,N
1664007095.8,286047004.7,N
1664007115.6,286047007.5,Y
1664007135.4,286047000.4,P
1664007155.3,286046998.2,N
1664007175.1,286046998.3,N
1664007195.9,286047002.6,N
1664007215.7,286047002.6,N
1664007235.5,286047001.9,N
1664007255.4,286047002.2,N
1664007275.2,286047002.2,N
1664007295.0,286047002.5,N
1664007295.9,286047002.5,N
1664007315.8,286047001.2,N
1664007335.6,286047001.1,N
1664007355.5,286047002.2,N
1664007375.5,286047015.8,Y
1664007395.4,286047018.4,P
1664007415.2,286047014.1,N
1664007435.0,286047022.0,P
1664007435.9,286047022.0,N
1664007455.8,286047017.5,N
1664007475.6,286047019.4,N
1664007495.5,286047017.5,N
1664007515.3,286047015.8,N
1664007535.1,286047014.2,N
1664007555.9,286047014.8,N
1664007575.7,286047011.3,N
1664007595.6,286047011.1,N
1664007615.4,286047011.7,N
1664007635.2,286047009.5,N
1664007655.1,286047008.4,N
1664007656.0,286047008.4,N
1664007675.8,286047009.2,N
1664007695.7,286047006.1,N
1664007715.5,286047007.4,N
1664007735.3,286047006.7,N
1664007755.2,286047006.7,N
1664007775.0,286047005.4,N
1664007775.9,286047005.4,N
1664007795.3,286047002.9,N
1664007815.2,286047003.4,N
1664007835.0,286047003.8,N
1664007835.9,286047003.8,N
1664007855.8,286047004.2,N
1664007875.6,286047003.7,N
1664007895.4,286047001.1,N
1664007915.3,286047000.9,N
1664007935.1,286047000.4,N
1664007955.8,286046996.6,N
1664007975.7,286046998.5,N
1664007995.5,286046998.6,N
1664008015.4,286046995.0,N
1664008035.2,286046997.9,N
1664008055.0,286046998.9,N
1664008055.9,286046998.9,N
1664008075.8,286046998.5,N
1664008095.6,286047000.7,N
1664008115.4,286047001.1,N
1664008135.3,286046999.2,N
1664008155.1,286046998.4,N
1664008175.9,286046997.2,N
1664008195.7,286046997.4,N
1664008215.5,286046997.0,N
1664008235.4,286046999.3,N
1664008255.2,286046999.3,N
1664008275.1,286046996.8,N
1664008276.0,286046996.8,N
1664008295.8,286046999.5,N
1664008315.6,286047000.8,N
1664008335.5,286047002.8,N
1664008355.3,286047002.6,N
1664008375.2,286046999.7,N
1664008395.9,286046999.3,N
1664008415.7,286046997.4,N
1664008435.6,286046997.8,N
1664008455.4,286046998.0,N
1664008475.2,286046997.5,N
1664008495.1,286046998.3,N
1664008496.0,286046998.3,N
1664008515.8,286047000.8,N
1664008535.7,286046995.2,N
1664008555.5,286046995.0,N
1664008575.3,286046997.2,N
1664008595.2,286046999.4,N
1664008615.0,286046996.8,N
1664008615.9,286046996.8,N
1664008635.8,286046997.9,N
1664008655.6,286046996.4,N
1664008675.4,286046997.7,N
1664008695.3,286046999.2,N
1664008715.1,286047001.1,N
1664008735.8,286046998.6,N
1664008755.7,286046997.1,N
1664008775.5,286046998.8,N
1664008795.4,286047000.9,N
1664008815.2,286046998.5,N
1664008835.0,286046999.5,N
1664008835.9,286046999.5,N
1664008855.8,286046998.4,N
1664008875.6,286046998.3,N
1664008895.5,286047002.7,N
1664008915.3,286047000.4,N
1664008935.1,286047000.7,N
1664008955.9,286046999.1,N
1664008975.7,286046997.2,N
1664008995.6,286046996.9,N
1664009015.4,286046998.3,N
1664009035.2,286046998.9,N
1664009055.1,286047000.5,N
1664009056.0,286047000.5,N
1664009075.8,286046998.9,N
1664009095.6,286046999.6,N
1664009115.5,286046999.2,N
1664009135.3,286046999.4,N
1664009155.2,286047001.2,N
1664009175.9,286046998.8,N
1664009195.7,286046998.7,N
1664009215.6,286047001.2,N
1664009235.4,286047001.1,N
1664009255.2,286047000.2,N
1664009275.1,286046998.1,N
1664009276.0,286046998.1,N
1664009295.8,286046999.4,N
1664009315.7,286046997.6,N
1664009335.5,286046999.5,N
1664009355.3,286047001.1,N
1664009375.2,286047000.5,N
1664009395.0,286047002.4,N
1664009395.9,286047002.4,N
1664009415.7,286047002.6,N
1664009435.6,286047000.6,N
1664009455.4,286047001.0,N
1664009475.3,286046999.1,N
1664009495.1,286046995.2,Y
1664009515.8,286046995.0,P
1664009535.7,286046999.4,N
1664009555.5,286047001.2,N
1664009575.4,286047001.8,N
1664009595.2,286047002.8,N
1664009615.0,286046999.8,N
1664009615.9,286046999.8,N
1664009635.8,286047000.2,N
1664009655.6,286046999.5,N
1664009675.4,286046999.0,N
1664009695.3,286046997.8,N
1664009715.1,286046995.0,N
1664009735.9,286046997.7,N
1664009755.7,286046996.6,N
1664009775.5,286046998.4,N
1664009795.4,286047000.8,N
1664009815.2,286046996.6,N
1664009835.0,286046999.2,N
1664009835.9,286046999.2,N
1664009855.8,286046999.5,N
1664009875.6,286046995.3,N
1664009895.5,286046998.1,N
1664009915.3,286047000.9,N
1664009935.1,286046999.8,N
1664009955.9,286047001.4,N
1664009975.7,286047001.6,N
1664009995.5,286047001.8,N
